Weather History for 62463 - July, 2013

Change the Weather History Date:

Tuesday, July 16, 2013

  Actual Average Record
Temperature  
Mean Temperature 90 °F -  
Max Temperature 101 °F 95 °F - ()
Min Temperature 80 °F 81 °F - ()
Cooling Degree Days 26    
Growing Degree Days 40 (Base 50)    
Moisture  
Dew Point 62 °F    
Average Humidity 36    
Maximum Humidity 66    
Minimum Humidity 18    
Precipitation  
Precipitation 0.00 in - - ()
Sea Level Pressure  
Sea Level Pressure 29.65 in    
Wind  
Wind Speed 17 mph ()    
Max Wind Speed 54 mph    
Max Gust Speed -    
Visibility 5.5 miles    
Events      
T = Trace of Precipitation, MM = Missing Value Source: Averaged Metar Reports

Daily Weather History Graph

Daily Weather History Graph

Search for Another Location

Airport or City:

Trip Planner

Search our weather history database for the weather conditions in past years. The results will help you decide how hot, cold, wet, or windy it might be!

Date:

Astronomy

Jul. 16, 2013 Rise Set
Actual Time 5:00 AM EET 6:41 PM EET
Civil Twilight 4:34 AM EET 7:06 PM EET
Nautical Twilight 4:03 AM EET 7:37 PM EET
Astronomical Twilight 3:30 AM EET 8:10 PM EET
Moon 12:13 PM EET (7/16) 11:42 PM EET (7/16)
Length of Visible Light 14h 32m
Length of Day
13h 40m
First Quarter, 53% of the Moon is Illuminated
Jul 16
First Quarter
Jul 22
Full
Jul 29
Last Quarter
Aug 6
New
Aug 14
First Quarter

Hourly Weather History & Observations

Time (EET) Temp. Heat Index Dew Point Humidity Pressure Visibility Wind Dir Wind Speed Gust Speed Precip Events Conditions
12:00 AM 86.0 °F - 50.0 °F 29% 29.65 in - NNW 6.9 mph - N/A   Clear
1:00 AM 86.0 °F - 51.8 °F 31% 29.62 in - NW 11.5 mph - N/A   Clear
2:00 AM 85 °F - 53 °F 23% 29.65 in 6 mi NW 22.4 mph - -  
2:00 AM 84.2 °F 82.8 °F 53.6 °F 35% 29.62 in - NW 11.5 mph - N/A   Clear
3:00 AM 82.4 °F 82.5 °F 59.0 °F 45% 29.62 in - NW 11.5 mph - N/A   Clear
4:00 AM 82.4 °F 83.4 °F 62.6 °F 51% 29.65 in - NW 9.2 mph - N/A   Clear
5:00 AM 81 °F - 65 °F 49% 29.66 in 6 mi NW 16.1 mph - -  
5:00 AM 80.6 °F 82.3 °F 64.4 °F 58% 29.65 in - NW 16.1 mph - N/A   Clear
6:00 AM 82.4 °F 86.3 °F 69.8 °F 66% 29.65 in - NW 17.3 mph - N/A   Clear
7:00 AM 86.0 °F 91.8 °F 71.6 °F 62% 29.68 in - NW 15.0 mph - N/A   Clear
8:00 AM 90 °F - 71 °F 45% 29.70 in 6 mi North 31.3 mph - -  
8:00 AM 89.6 °F 96.2 °F 71.6 °F 55% 29.68 in - North 16.1 mph - N/A   Clear
9:00 AM 93.2 °F 100.5 °F 71.6 °F 49% 29.68 in - North 21.9 mph - N/A   Clear
10:00 AM 95.0 °F 101.3 °F 69.8 °F 44% 29.68 in - North 23.0 mph - N/A   Clear
11:00 AM 98 °F - 65 °F 25% 29.68 in 5 mi North 44.7 mph - -   Blowing Sand
11:00 AM 96.8 °F 100.7 °F 66.2 °F 37% 29.68 in 5.0 mi North 23.0 mph - N/A   Unknown
12:00 PM 100.4 °F 104.9 °F 66.2 °F 33% 29.65 in 5.0 mi North 25.3 mph - N/A   Unknown
1:00 PM 100.4 °F 104.9 °F 66.2 °F 33% 29.62 in 5.0 mi North 25.3 mph - N/A   Unknown
2:00 PM 101 °F - 61 °F 18% 29.63 in 6 mi North 53.7 mph - -  
2:00 PM 102.2 °F 103.6 °F 60.8 °F 26% 29.62 in 5.0 mi North 27.6 mph - N/A   Unknown
3:00 PM 100.4 °F 102.4 °F 62.6 °F 29% 29.62 in 5.0 mi North 27.6 mph - N/A   Unknown
4:00 PM 98.6 °F 99.4 °F 60.8 °F 29% 29.59 in - North 26.5 mph - N/A   Clear
5:00 PM 98.6 °F 99.4 °F 60.8 °F 29% 29.59 in - North 23.0 mph - N/A   Clear
6:00 PM 96.8 °F 97.1 °F 60.8 °F 30% 29.62 in - NNW 18.4 mph - N/A   Clear
7:00 PM 96.8 °F 96.2 °F 59.0 °F 28% 29.62 in - NNW 15.0 mph - N/A   Clear
8:00 PM 95 °F - 63 °F 25% 29.66 in 6 mi NNW 44.7 mph - -  
8:00 PM 95.0 °F 96.0 °F 62.6 °F 34% 29.65 in - NNW 23.0 mph - N/A   Clear
10:00 PM 91.4 °F - 51.8 °F 26% 29.68 in - NW 11.5 mph - N/A   Clear
11:00 PM 89 °F - 53 °F 20% 29.69 in 6 mi NW 15.7 mph - -  
11:00 PM 89.6 °F 87.3 °F 53.6 °F 29% 29.68 in - NW 8.1 mph - N/A   Clear